Regional Weather Roundup
Issued by NWS Kansas City/Pleasant Hill, MO

Home | Current Version | Previous Version | Text Only | Print | Product List | Glossary On
Versions: 1 2 3 4 5 6 7 8 9 10 11 12 13 14 15 16 17 18 19 20 21 22 23 24 25 26 27 28 29 30 31 32 33 34 35 36 37 38 39 40 41 42 43 44 45 46 47 48 49 50
000
ASUS43 KEAX 251210
RWREAX

WEATHER ROUNDUP FOR EASTERN KANSAS AND NORTHWEST MISSOURI
NATIONAL WEATHER SERVICE KANSAS CITY/PLEASANT HILL MO
700 AM CDT SUN JUN 25 2017

KSZ040-057-103>105-MOZ028-029-037-043-251300-
...KANSAS CITY METROPOLITAN AREA...

CITY           SKY/WX    TMP DP  RH WIND       PRES   REMARKS
K.C. INTL      MOSUNNY   59  50  72 NW7       30.27R
6HR MIN TEMP:  58; 6HR MAX TEMP:  63;

K.C. DOWNTOWN  SUNNY     64  52  64 W5        30.27R
6HR MIN TEMP:  63; 6HR MAX TEMP:  70;

LEES SUMMIT    MOSUNNY   63  52  67 W6        30.27R
6HR MIN TEMP:  62; 6HR MAX TEMP:  67;

OLATHE - IXD   SUNNY     62  53  72 NW9       30.28R
6HR MIN TEMP:  60; 6HR MAX TEMP:  68;

OLATHE - OJC   SUNNY     63  53  70 NW8       30.27R
6HR MIN TEMP:  61; 6HR MAX TEMP:  68;

LAWRENCE       SUNNY     59  55  87 W6        30.28R

$$

MOZ001>008-011>017-020>025-030>033-038>040-044>046-053-054-251300-
...NORTHERN AND CENTRAL MISSOURI...

CITY           SKY/WX    TMP DP  RH WIND       PRES   REMARKS
ST. JOSEPH     MOSUNNY   56  52  86 CALM      30.29R
6HR MIN TEMP:  51; 6HR MAX TEMP:  64;

MOSBY          SUNNY     54  52  94 CALM      30.27R
WARRENSBURG    MOSUNNY   61  50  67 W6        30.25R
WHITEMAN AFB   MOSUNNY   63  53  71 W7        30.23R
6HR MIN TEMP:  61; 6HR MAX TEMP:  65;

CLINTON        PTSUNNY   63  55  77 W5        30.26S
SEDALIA        MOSUNNY   63  54  72 W7        30.25R
6HR MIN TEMP:  58; 6HR MAX TEMP:  64;

WARSAW         NOT AVBL
CHILLICOTHE      N/A     56  51  84 CALM      30.26R
6HR MIN TEMP:  52; 6HR MAX TEMP:  65;

KIRKSVILLE     SUNNY     57  52  83 W3        30.23R
6HR MIN TEMP:  49; 6HR MAX TEMP:  59;


$$

MOZ041-047>049-056>058-063>065-088>090-097-251300-
...EASTERN AND SOUTHERN MISSOURI...

CITY           SKY/WX    TMP DP  RH WIND       PRES   REMARKS
ST. LOUIS INTL MOSUNNY   67  48  50 W10       30.20R
6HR MIN TEMP:  63; 6HR MAX TEMP:  67;

SPIRIT OF STL  MOSUNNY   63  51  65 SW9       30.20R
COLUMBIA       MOSUNNY   62  50  64 W6        30.23R
JEFFERSON CITY MOSUNNY   62  51  67 CALM      30.23R
ROLLA          SUNNY     55  51  86 SW7       30.24R
OSAGE BEACH    SUNNY     58  52  80 SW5       30.26R
SPRINGFIELD    MOSUNNY   64  54  69 CALM      30.28R
BRANSON        PTSUNNY   63  55  77 CALM      30.29R
JOPLIN         MOCLDY    64  60  87 CALM      30.28R
WEST PLAINS    CLOUDY    60  54  80 CALM      30.28R

$$

IAZ060-094-KSZ022-034>040-054-083-096-NEZ052-066-093-251300-
...KANSAS...SOUTHEAST NEBRASKA AND IOWA...

CITY           SKY/WX    TMP DP  RH WIND       PRES   REMARKS
TOPEKA         CLEAR     62  55  77 NW5       30.28R
6HR MIN TEMP:  59; 6HR MAX TEMP:  71;

MANHATTAN      CLEAR     58  54  86 N3        30.29R
EMPORIA        PTCLDY    59  56  89 CALM      30.28R
CHANUTE        CLOUDY    65  54  67 CALM      30.26F
WICHITA        MOCLDY    66  56  70 S5        30.27S
OMAHA          CLOUDY    57  46  66 CALM      30.29R
LINCOLN        CLEAR     56  43  61 W3        30.33R
FALLS CITY     MOSUNNY   54  48  80 NW6       30.29R
LAMONI         MOSUNNY   54  47  77 W6        30.25R
DES MOINES     MOSUNNY   55  45  68 NW9       30.23R

$$




USA.gov is the U.S. government's official web portal to all federal, state and local government web resources and services.